SL-14 DEB, 45297

Orbit data source: Space-Track

SL-14 DEB, 45297 is space debris in LEO originally from a launch on Thu, 15 Aug 1991 UTC launched from the Plesetsk Missile And Space Complex (PKMTR). Debris objects in space refer to the collection of defunct objects orbiting the Earth. Examples of debris include non-operational satellites, rocket bodies, and fragments generated from explosions, collisions, or faulty payload assembly.

Loading next visibility...
Identifier
45297, 1991-056AK
Orbit
LEO
Last TLE update
13 hours ago
Origin
Manufacturer
Unknown
Mission
Spacecraft
Bus & Motor
Unknown
Mass
Unknown
Launch date (UTC)
1991-08-15 (34 years ago)
Launch vehicle
Unknown
Launch site
Plesetsk Missile And Space Complex (PKMTR)
Object type
Payload
Rocket body
Debris
Shape & HBR
Unknown
Radar Cross Section
Small (<0.1 m²)

Expand to show TLE details & history

TLE from 13 hours ago
0 SL-14 DEB
1 45297U 91056AK  25109.44314533  .00006162  00000-0  15699-1 0  9998
2 45297  82.6011 112.3158 0102374  17.3746 343.0837 13.16384370245378
Epoch: 2025-04-19T10:38Z
Definitive object data (Epoch: 2025-04-19T10:38:07.756Z)
Latitude
-0.00001°
Longitude
104.99721°
Altitude
1,127.215 km
Speed
7.325 km/s
True Right ascension
07h 29m 15s
True Declination
0° 00' 00"
Sunlit
Object was in daylight at TLE epoch
Visualization TLE readout
Latitude
82.50456°
Longitude
-154.49287°
Altitude
1,191.825 km
Speed
7.274 km/s
Apparent Right ascension
18h 04m 46s
Apparent Declination
32° 33' 33"
Sunlit
Object is in daylight
Visualization observer readout
Local Sidereal Time
06:44:25
Azimuth
8.722° NNE
Elevation
-16.946°
Doppler factor
1
Orbital elements
Apogee altitude
1,273.343 km
Perigee altitude
1,118.268 km
Semi-major axis
7,573.942 km
Eccentricity
0.0102374
Inclination
82.6011°
RAAN
112.3158°
Arg. of periapsis
17.3746°
True anomaly
342.73813°
Mean anomaly
343.0837°
Eccentric anomaly
342.91134°
Mean motion
3.29276 °/min
BSTAR
0.015699
Orbital period
109.33 mins
Loading maneuver chart data...
Loading SW <> Apogee altitude chart data...
Loading historical data...
Loading historical data...
Loading historical data...
Loading historical data...
Loading historical data...
Loading historical data...
Loading historical data...

SL-14 DEB Visibility forecast

Observer location: undefined°, undefined°

Span
Click to sort rows by Start time (UTC) header in descending order
Start Az.
Max El. time (UTC)
Max El. Az.
Max El.
End time (UTC)
End Az.
13 mins2025-04-20 01:19:34.484Z202.604° SW2025-04-20 01:25:34.484Z268.052° W40.486°2025-04-20 01:32:34.484Z359.799° N
11 mins2025-04-20 10:57:34.484Z20.195° NNE2025-04-20 11:02:34.484Z78.661° E29.251°2025-04-20 11:08:34.484Z134.606° SE
12 mins2025-04-20 12:47:34.484Z332.431° NNW2025-04-20 12:52:34.484Z270.68° WNW35.073°2025-04-20 12:59:34.484Z202.211° SSW
7 mins2025-04-20 23:16:34.484Z107.104° ESE2025-04-20 23:19:34.484Z76.628° E17.279°2025-04-20 23:23:34.484Z41.182° NE
|